IRIDIUM 116 (43072 NORAD) Tracking and Keplerian Element Data

This shows tracking and keplerian element data for the satellite.

Feedback or suggestion? Click here.




ElementValue
Catalog43072
NameIRIDIUM 116
Epoch Orbit13310
Epoch Day189.92568973
Epoch Year2020
RAAN149.0202
Inclination86.3988
Eccentricity0.0002602
Argument of Perigee82.3486
Mean Anonmoly277.8005
Mean Motion14.3421818
Decay Rate5.4E-07
L11 43072U 17083C 20189.92568973 .00000054 00000-0 12114-4 0 9996
L22 43072 86.3988 149.0202 0002602 82.3486 277.8005 14.34218180133108

Live tracking and technical data element details for IRIDIUM 116 (NORAD 43072). IRIDIUM 116 can be tracked NOW for your location showing map with azimuth and elevation plus other details from your city location.

Track the satellite on the map from your city or location and see movement details for azimuth, elevation, latitude, longitude, range, height, and movement on the map or in text.







IsCatalogInMostPopularTable: catalog: 43072, numindb: 451
Update: records affected: 1



GetName: 43072 IRIDIUM 116

Hit Count: updated at: Wed, 08 Jul 2020 21:28:20 GMT